Location: Venise Bay
(45.0825°N, 73.1481°W)
Time: 15:31:30
(UTC-05:00)

ISS - Pass Details

Date: 21 January 2020
Orbit: 415 x 423 km, 51.6° (Epoch: 28 February)

Event Time Altitude Azimuth Distance (km) Brightness Sun altitude
Rises 19:16:14 0° 246° (WSW) 2,372 1.1 -26.5°
Reaches altitude 10° 19:18:20 10° 249° (WSW) 1,509 -0.1 -26.9°
Enters shadow 19:19:49 24° 254° (WSW) 926 -1.4 -27.1°
